265  
ASUS41 KRLX 200610  
RWRRLX  
REGIONAL WEATHER ROUNDUP  
NATIONAL WEATHER SERVICE CHARLESTON WV  
200 AM EDT SAT OCT 20 2018  
 
NOTE: "FAIR" INDICATES FEW OR NO CLOUDS BELOW 12,000 FEET WITH NO  
SIGNIFICANT WEATHER AND/OR S TO VISIBILITY
.  
 
WVZ003-200700-  
NORTHERN PANHANDLE OF WEST VIRGINIA  
 
CITY SKY/WX TMP DP RH WIND PRES REMARKS
 
WHEELING CLOUDY 47 45 93 SW9G21 29.88F  

 
 
WVZ009-200700-  
NORTHWEST WEST VIRGINIA  
 
CITY SKY/WX TMP DP RH WIND PRES REMARKS
 
PARKERSBURG CLOUDY 51 49 92 W5 29.96F FOG  

 
 
WVZ006-200700-  
WESTERN WEST VIRGINIA  
 
CITY SKY/WX TMP DP RH WIND PRES REMARKS
 
HUNTINGTON CLOUDY 52 49 89 SW8 29.97F  

 
 
WVZ015-200700-  
WEST CENTRAL WEST VIRGINIA  
 
CITY SKY/WX TMP DP RH WIND PRES REMARKS
 
CHARLESTON RAIN 53 52 96 W9 29.98R  

 
 
WVZ022-031-200700-  
NORTH CENTRAL WEST VIRGINIA  
 
CITY SKY/WX TMP DP RH WIND PRES REMARKS
 
MORGANTOWN CLOUDY 51 50 96 SW8 29.91F  
CLARKSBURG RAIN 54 51 90 W5 29.91F FOG  
BUCKHANNON RAIN 52 52 100 W12G28 29.93F  

 
 
WVZ025-035-042-045-200700-  
SOUTHERN WEST VIRGINIA  
 
CITY SKY/WX TMP DP RH WIND PRES REMARKS
 
BECKLEY LGT RAIN 53 50 89 SW8 29.97F  
LOGAN LGT RAIN 55 55 100 CALM 29.98R  
PINEVILLE RAIN 55 55 97 MISG 30.03S  
BLUEFIELD LGT RAIN 53 53 100 W14G25 30.00F  
LEWISBURG LGT RAIN 55 49 82 CALM 29.96F  

 
 
WVZ047-200700-  
NORTHERN MOUNTAINS OF WEST VIRGINIA  
 
CITY SKY/WX TMP DP RH WIND PRES REMARKS
 
ELKINS LGT RAIN 52 50 93 CALM 29.93F  

 
 
WVZ052-200700-  
EASTERN PANHANDLE OF WEST VIRGINIA  
 
CITY SKY/WX TMP DP RH WIND PRES REMARKS
 
MARTINSBURG CLOUDY 57 49 74 S6 29.85F  
PETERSBURG MOCLDY 60 49 65 W8G18 29.87S  

 
 
SOUTHEAST OHIO/NORTHEAST KENTUCKY  
 
CITY SKY/WX TMP DP RH WIND PRES REMARKS
 
ATHENS CLOUDY 50 50 100 SW8 29.94S FOG  
ASHLAND LGT RAIN 51 50 96 VRB6 29.98S  

 
 
 
CLICK HERE TO GO TO PREVIOUS BULLETINS.

The Nexlab WV Page
The Nexlab OH Page
The Nexlab KY Page
The Nexlab VA Page Main Text Page